Free Severe Weather Alerts by Email and Text Message   

 
Follow iAlert.com on twitter @ialertcom
Search For Active Alerts in Your Area  
  Hi Guest:  [ Sign-up / Services ] [ Login ]

Current weather by "City, St" or "zip code"  

 

Advertise Here

Hazardous Weather Conditions

Special Weather Statement issued March 25 at 5:23AM CDT until March 26 at 11:00PM CDT

Current Conditions: HOUSTON, TEXAS

Fair


67.0 F

Last Updated on Mar 25 2017, 9:53 am CDT
Humidity: 53%
Wind Speed: NW 9.2 G 17.3 mph
Barometer 30.05 in
Dewpoint: 48.9 F
Visibility: 10.00 mi
Precip: --
Heat Index: NA
Wind Chill: NA
Current conditions at:

Houston, Hooks Memorial Airport, TX (KDWH)

Lat: 30.06 Lon: -95.556

Local Radar Image active severe weather and emergency alerts image image weather storm and storm spotter reports image weather observation monitoring service image
Local
Radar
Active
Alerts
Storm Reports Weather
Monitoring

Weather Alert Notification Services


ialert severe weather and emergency alerts by text message and email ialert daily weather forecast by email and text message service ialert real-time weather-observation monitoring and alert notification service ialert storm report monitoring alert notification

Observation History for HOUSTON, TEXAS


Time Wind
(mph)
Vis
(mi)
Weather Precip (in) Temperature (F) Relative
Humidity
Wind
Chill
(°F)
Heat
Index
(°F)
Pressure
Air Dwpt altimeter
(in)
sea level
(mb)
9:53 am CDT NW 9.2 G 17.3 10.00 Fair -- 67.0 48.9 53% NA NA 30.05 1017.3
8:53 am CDT NW 9.2 10.00 Fair -- 66.0 52.0 61% NA NA 30.03 1016.7
7:53 am CDT NW 9.2 10.00 A Few Clouds -- 67.0 60.1 79% NA NA 30.00 1015.7
6:53 am CDT W 6.9 8.00 Mostly Cloudy Trace 70.0 68.0 93% NA NA 29.98 1014.8
5:53 am CDT W 8.1 8.00 Thunderstorm Light Rain 00.16 71.0 69.1 94% NA NA 29.96 1014.3
4:53 am CDT SW 10.4 G 20.7 8.00 Overcast -- 73.0 69.1 87% NA NA 29.93 1013.3
3:53 am CDT S 11.5 8.00 Overcast -- 72.0 69.1 91% NA NA 29.93 1013.2
2:53 am CDT SW 10.4 8.00 Overcast -- 72.0 69.1 91% NA NA 29.94 1013.6
1:53 am CDT S 12.7 10.00 Mostly Cloudy -- 72.0 68.0 87% NA NA 29.95 1013.8
12:53 am CDT S 3.5 10.00 Fair -- 67.0 57.9 73% NA NA 29.95 1013.9
11:53 pm CDT SW 8.1 10.00 A Few Clouds -- 70.0 66.9 90% NA NA 29.95 1014.1
10:53 pm CDT S 3.5 10.00 Thunderstorm in Vicinity -- 68.0 60.1 76% NA NA 29.96 1014.3
9:53 pm CDT S 13.8 G 25.3 9.00 Thunderstorm Light Rain -- 73.0 69.1 87% NA NA 29.94 1013.6
8:53 pm CDT S 13.8 G 21.9 10.00 Overcast -- 76.0 66.9 74% NA NA 29.92 1012.8
7:53 pm CDT S 11.5 G 19.6 10.00 Overcast -- 75.0 66.0 74% NA NA 29.91 1012.4
6:53 pm CDT S 11.5 G 29.9 10.00 Overcast -- 75.0 66.0 74% NA NA 29.89 1012.0
5:53 pm CDT S 13.8 G 23.0 10.00 Overcast Trace 75.0 63.0 66% NA NA 29.91 1012.4
4:53 pm CDT S 9.2 G 19.6 10.00 Light Rain 00.01 73.0 64.9 76% NA NA 29.93 1013.1
3:53 pm CDT S 13.8 G 27.6 10.00 Overcast Trace 77.0 62.1 60% NA NA 29.92 1013.1
2:53 pm CDT SE 11.5 G 28.8 10.00 Mostly Cloudy Trace 79.0 63.0 58% NA NA 29.95 1013.8
1:53 pm CDT S 10.4 G 23.0 10.00 Mostly Cloudy -- 78.0 62.1 58% NA NA 29.99 1015.4
12:53 pm CDT S 13.8 G 20.7 10.00 Mostly Cloudy -- 78.0 62.1 58% NA NA 30.01 1016.0
11:53 am CDT S 10.4 G 21.9 10.00 Overcast -- 76.0 63.0 64% NA NA 30.03 1016.6
10:53 am CDT S 12.7 G 23.0 10.00 Mostly Cloudy -- 75.0 63.0 66% NA NA 30.03 1016.5

Regional Weather Observation:


John Dunn Helistop, TX (KMCJ)

Fair
70.0 F

Houston, Houston Hobby Airport, TX (KHOU)

Partly Cloudy
72.0 F

Houston Southwest Airport, TX (KAXH)

Partly Cloudy
70.0 F

Conroe, Montgomery County Airport, TX (KCXO)

Fair
66.0 F

Houston, Pearland Regional Airport, TX (KLVJ)

Thunderstorm in Vicinity Haze
73.0 F

Cleveland, TX (K6R3)

Fair
66.0 F

Advertise Here


Advertise Here